Weather History for Morgantown, WV

Change the Weather History Date:

Sunday, January 12, 2014

  Actual Average Record
Temperature  
Mean Temperature 38 °F 31 °F  
Max Temperature 41 °F 39 °F 68 °F (2013)
Min Temperature 34 °F 24 °F -4 °F (1981)
Degree Days  
Heating Degree Days 27 34  
Month to date heating degree days 438 405  
Since 1 July heating degree days 2392 2389  
Cooling Degree Days 0 0  
Month to date cooling degree days 0 0  
Year to date cooling degree days 0 0  
Moisture  
Dew Point 28 °F    
Average Humidity 70    
Maximum Humidity 76    
Minimum Humidity 64    
Precipitation  
Precipitation 0.00 in 0.09 in 0.89 in (1949)
Month to date precipitation 1.06 1.08  
Year to date precipitation 1.06 1.08  
Sea Level Pressure  
Sea Level Pressure 29.94 in    
Wind  
Wind Speed 6 mph (SW)    
Max Wind Speed 14 mph    
Max Gust Speed 22 mph    
Visibility 10 miles    
Events      
T = Trace of Precipitation, MM = Missing Value Source: NWS Daily Summary

Daily Weather History Graph

Daily Weather History Graph

Search for Another Location

Airport:

Trip Planner

Search our weather history database for the weather conditions in past years. The results will help you decide how hot, cold, wet, or windy it might be!

Date:

Astronomy

Jan. 12, 2014 Rise Set
Actual Time 7:39 AM EST 5:16 PM EST
Civil Twilight 7:09 AM EST 5:46 PM EST
Nautical Twilight 6:36 AM EST 6:19 PM EST
Astronomical Twilight 6:04 AM EST 6:52 PM EST
Moon 2:43 PM EST (1/12) 4:37 AM EST (1/12)
Length of Visible Light 10h 36m
Length of Day
9h 37m
Waxing Gibbous, 89% of the Moon is Illuminated
Jan 12
Waxing Gibbous
Jan 15
Full
Jan 24
Last Quarter
Jan 30
New
Feb 6
First Quarter

Hourly Weather History & Observations

Time (EST) Temp. Windchill Dew Point Humidity Pressure Visibility Wind Dir Wind Speed Gust Speed Precip Events Conditions
12:53 AM 39.0 °F 31.4 °F 32.0 °F 76% 29.73 in 10.0 mi West 12.7 mph 18.4 mph N/A   Overcast
1:53 AM 37.9 °F 29.6 °F 28.0 °F 68% 29.75 in 10.0 mi West 13.8 mph 20.7 mph N/A   Overcast
2:49 AM 37.4 °F 32.8 °F 26.6 °F 65% 29.78 in 10.0 mi Variable 5.8 mph - N/A   Overcast
2:53 AM 37.0 °F 31.6 °F 26.1 °F 65% 29.79 in 10.0 mi West 6.9 mph - N/A   Overcast
3:53 AM 36.0 °F 29.0 °F 26.1 °F 67% 29.82 in 10.0 mi West 9.2 mph - N/A   Overcast
4:12 AM 35.6 °F 30.7 °F 26.6 °F 70% 29.81 in 10.0 mi Variable 5.8 mph - N/A   Overcast
4:36 AM 35.6 °F 31.7 °F 26.6 °F 70% 29.82 in 10.0 mi WSW 4.6 mph - N/A   Overcast
4:46 AM 35.6 °F 30.7 °F 26.6 °F 70% 29.83 in 10.0 mi Variable 5.8 mph - N/A   Overcast
4:53 AM 36.0 °F 32.1 °F 26.1 °F 67% 29.84 in 10.0 mi Variable 4.6 mph - N/A   Overcast
5:34 AM 35.6 °F 30.7 °F 26.6 °F 70% 29.84 in 10.0 mi WSW 5.8 mph - N/A   Overcast
5:53 AM 36.0 °F 29.0 °F 26.1 °F 67% 29.86 in 10.0 mi SW 9.2 mph - N/A   Overcast
6:53 AM 36.0 °F 33.3 °F 27.0 °F 70% 29.88 in 10.0 mi SW 3.5 mph - N/A   Overcast
7:53 AM 36.0 °F 31.1 °F 28.0 °F 73% 29.93 in 10.0 mi SW 5.8 mph - N/A   Overcast
8:53 AM 36.0 °F 33.3 °F 28.0 °F 73% 29.96 in 10.0 mi Variable 3.5 mph - N/A   Overcast
9:53 AM 37.0 °F - 28.0 °F 70% 29.99 in 10.0 mi Calm Calm - N/A   Overcast
10:53 AM 37.0 °F 31.6 °F 28.0 °F 70% 30.01 in 10.0 mi WSW 6.9 mph - N/A   Overcast
11:53 AM 37.9 °F 34.4 °F 28.0 °F 68% 30.01 in 10.0 mi Variable 4.6 mph - N/A   Overcast
12:53 PM 37.9 °F 32.1 °F 28.0 °F 68% 30.00 in 10.0 mi WSW 8.1 mph - N/A   Overcast
1:53 PM 39.0 °F 32.3 °F 28.0 °F 65% 30.01 in 10.0 mi SW 10.4 mph 17.3 mph N/A   Overcast
2:53 PM 39.9 °F 35.8 °F 28.0 °F 63% 30.03 in 10.0 mi Variable 5.8 mph 19.6 mph N/A   Mostly Cloudy
3:11 PM 39.2 °F 33.6 °F 28.4 °F 65% 30.01 in 10.0 mi SW 8.1 mph 16.1 mph N/A   Scattered Clouds
3:53 PM 39.9 °F 35.1 °F 28.0 °F 63% 30.05 in 10.0 mi Variable 6.9 mph - N/A   Partly Cloudy
4:53 PM 39.9 °F 35.1 °F 28.0 °F 63% 30.07 in 10.0 mi SW 6.9 mph - N/A   Clear
5:53 PM 37.9 °F - 28.0 °F 68% 30.08 in 10.0 mi Calm Calm - N/A   Clear
6:53 PM 36.0 °F 33.3 °F 28.0 °F 73% 30.08 in 10.0 mi South 3.5 mph - N/A   Clear
7:53 PM 36.0 °F 32.1 °F 28.0 °F 73% 30.08 in 10.0 mi South 4.6 mph - N/A   Clear
8:53 PM 36.0 °F 33.3 °F 28.0 °F 73% 30.08 in 10.0 mi South 3.5 mph - N/A   Clear
9:53 PM 37.0 °F 33.3 °F 28.9 °F 73% 30.07 in 10.0 mi South 4.6 mph - N/A   Clear
10:53 PM 39.9 °F 37.8 °F 28.9 °F 65% 30.06 in 10.0 mi South 3.5 mph - N/A   Clear
11:53 PM 39.9 °F - 28.0 °F 63% 30.05 in 10.0 mi Calm Calm - N/A   Clear